Weather History for Farmingdale, NY

Change the Weather History Date:

Tuesday, February 19, 2013

  Actual Average Record
Temperature  
Mean Temperature 38 °F -  
Max Temperature 45 °F 39 °F 66 °F (1997)
Min Temperature 30 °F 26 °F 12 °F (2007)
Degree Days  
Heating Degree Days 28    
Moisture  
Dew Point 34 °F    
Average Humidity 80    
Maximum Humidity 100    
Minimum Humidity 55    
Precipitation  
Precipitation 0.18 in - - ()
Sea Level Pressure  
Sea Level Pressure 29.88 in    
Wind  
Wind Speed 9 mph (SW)    
Max Wind Speed 23 mph    
Max Gust Speed 37 mph    
Visibility 8 miles    
Events Rain    
Averages and records for this station are not official NWS values.
T = Trace of Precipitation, MM = Missing Value Source: NWS Daily Summary

Daily Weather History Graph

Daily Weather History Graph

Search for Another Location

Airport:

Trip Planner

Search our weather history database for the weather conditions in past years. The results will help you decide how hot, cold, wet, or windy it might be!

Date:

Astronomy

Feb. 19, 2013 Rise Set
Actual Time 6:41 AM EST 5:33 PM EST
Civil Twilight 6:14 AM EST 6:01 PM EST
Nautical Twilight 5:42 AM EST 6:33 PM EST
Astronomical Twilight 5:10 AM EST 7:05 PM EST
Moon 12:01 PM EST (2/19) 2:12 AM EST (2/19)
Length of Visible Light 11h 47m
Length of Day
10h 51m
Waxing Gibbous, 67% of the Moon is Illuminated
Feb 19
Waxing Gibbous
Feb 25
Full
Mar 4
Last Quarter
Mar 11
New
Mar 19
First Quarter

Hourly Weather History & Observations

Time (EST) Temp. Windchill Dew Point Humidity Pressure Visibility Wind Dir Wind Speed Gust Speed Precip Events Conditions
12:53 AM 30.0 °F 25.2 °F 16.0 °F 56% 30.21 in 10.0 mi SSW 4.6 mph - N/A   Scattered Clouds
1:53 AM 30.9 °F 26.2 °F 17.1 °F 57% 30.19 in 10.0 mi SSW 4.6 mph - N/A   Clear
2:53 AM 30.0 °F 25.2 °F 19.0 °F 64% 30.17 in 10.0 mi SSW 4.6 mph - N/A   Clear
3:53 AM 30.0 °F 25.2 °F 19.9 °F 66% 30.15 in 10.0 mi SSW 4.6 mph - N/A   Clear
4:53 AM 30.9 °F 27.5 °F 21.9 °F 69% 30.14 in 10.0 mi SW 3.5 mph - N/A   Clear
5:53 AM 32.0 °F 27.5 °F 27.0 °F 82% 30.10 in 10.0 mi South 4.6 mph - N/A   Clear
6:53 AM 34.0 °F 28.8 °F 28.9 °F 82% 30.09 in 10.0 mi SSW 5.8 mph - N/A   Clear
7:53 AM 39.0 °F 34.0 °F 33.1 °F 79% 30.09 in 10.0 mi SSW 6.9 mph - N/A   Clear
8:53 AM 42.1 °F 35.7 °F 32.0 °F 67% 30.07 in 10.0 mi SSW 11.5 mph 24.2 mph N/A   Clear
9:53 AM 44.1 °F 37.4 °F 33.1 °F 65% 30.05 in 10.0 mi SSW 13.8 mph - N/A   Clear
10:53 AM 43.0 °F 35.1 °F 33.1 °F 68% 30.02 in 10.0 mi SSW 17.3 mph 24.2 mph N/A   Mostly Cloudy
11:53 AM 45.0 °F 37.1 °F 36.0 °F 71% 29.99 in 10.0 mi SSW 19.6 mph 29.9 mph N/A   Clear
1:53 PM 43.0 °F 35.7 °F 39.0 °F 86% 29.90 in 7.0 mi SSW 15.0 mph - 0.01 in Rain Light Rain
2:53 PM 43.0 °F 35.7 °F 39.9 °F 89% 29.85 in 7.0 mi South 15.0 mph - 0.02 in Rain Light Rain
3:53 PM 43.0 °F 36.0 °F 41.0 °F 93% 29.81 in 6.0 mi SSW 13.8 mph - 0.04 in Rain Light Rain
4:53 PM 44.1 °F 37.1 °F 43.0 °F 96% 29.75 in 4.0 mi South 15.0 mph 24.2 mph 0.05 in Rain Light Rain
5:02 PM 44.6 °F 37.4 °F 42.8 °F 93% 29.75 in 4.0 mi South 16.1 mph 23.0 mph 0.01 in Rain Light Rain
5:53 PM 44.1 °F 36.5 °F 43.0 °F 96% 29.73 in 7.0 mi SSW 17.3 mph 24.2 mph 0.04 in Rain Light Rain
7:53 PM 42.1 °F 40.2 °F 42.1 °F 100% 29.68 in 4.0 mi WSW 3.5 mph - 0.02 in Rain Light Rain
8:08 PM 42.8 °F 40.1 °F 42.8 °F 100% 29.69 in 4.0 mi WSW 4.6 mph - N/A   Overcast
8:23 PM 42.8 °F 40.1 °F 42.8 °F 100% 29.68 in 4.0 mi SW 4.6 mph - N/A   Overcast
8:35 PM 42.8 °F 40.1 °F 42.8 °F 100% 29.68 in 5.0 mi SW 4.6 mph - N/A   Overcast
8:53 PM 43.0 °F 38.2 °F 42.1 °F 97% 29.68 in 5.0 mi WSW 8.1 mph - 0.00 in Rain Light Rain
9:19 PM 44.6 °F 38.4 °F 41.0 °F 87% 29.67 in 10.0 mi West 12.7 mph - 0.00 in   Overcast
9:53 PM 44.1 °F 39.0 °F 39.0 °F 82% 29.67 in 10.0 mi West 9.2 mph - 0.00 in   Overcast
10:02 PM 44.6 °F 38.8 °F 39.2 °F 81% 29.67 in 10.0 mi West 11.5 mph - N/A   Overcast
10:36 PM 42.8 °F 35.8 °F 35.6 °F 76% 29.68 in 10.0 mi WNW 13.8 mph 25.3 mph N/A   Mostly Cloudy
10:53 PM 42.1 °F 34.9 °F 33.1 °F 70% 29.69 in 10.0 mi WNW 13.8 mph 23.0 mph N/A   Mostly Cloudy
11:53 PM 39.9 °F 29.7 °F 25.0 °F 55% 29.70 in 10.0 mi WNW 23.0 mph 36.8 mph N/A   Clear